Theta_e
340 334 332 333 334 336 336 337 338 340 344 346 347 346 344 343 343 344 345 345 345 345 345 345 346 347 347 347 348 349 349 347 346 344 343 343 342 342 342 342 342 342 343 343 343 344 344 344 344 345 345 346 348 350 350 350 348 347 347 345 345 347 349 350 349 347 344 344 344 344 344 343 341 339 337 334 332 330 329 329 329 328 328 327 328
341 337 333 331 333 335 336 336 337 339 342 345 346 346 344 343 343 343 343 342 342 343 343 343 343 345 347 349 350 351 351 351 350 348 346 345 344 343 341 341 341 341 342 342 342 343 343 343 343 342 342 342 343 346 348 349 348 346 345 343 341 343 346 349 350 348 344 342 342 342 340 338 335 333 332 330 329 327 326 326 326 326 325 325 325
344 342 339 334 332 333 335 336 337 337 340 342 343 344 342 342 343 342 342 341 341 340 340 340 340 341 344 346 348 350 351 351 351 350 350 348 346 344 343 341 340 340 340 340 341 342 342 342 341 341 341 340 340 341 343 345 345 345 344 342 341 341 344 346 348 347 344 340 337 336 334 334 333 331 332 331 330 330 328 328 328 328 328 328 327
346 346 345 342 337 333 333 335 336 337 337 339 339 341 340 340 341 340 340 341 341 340 339 339 340 341 342 343 345 347 350 350 350 351 350 349 347 344 343 341 340 339 338 338 339 339 339 339 339 338 340 340 339 339 340 341 342 342 341 340 341 341 343 345 345 346 344 338 333 334 335 336 335 333 333 332 332 332 331 331 331 330 330 330 330
346 346 346 347 344 339 334 334 336 337 336 337 337 338 339 339 339 337 337 338 339 340 341 340 341 342 343 344 344 345 347 348 348 349 349 348 346 344 343 341 340 338 337 337 336 337 337 337 337 337 337 337 336 337 338 339 340 339 338 337 338 340 342 343 344 344 342 337 334 335 337 338 337 334 333 334 333 332 332 332 332 332 332 331 330
347 347 347 347 347 345 339 334 334 336 336 336 336 337 337 336 337 335 334 335 337 338 339 340 341 342 343 344 344 344 344 345 345 345 346 346 345 344 343 341 340 339 338 337 336 336 335 335 335 335 334 334 334 334 335 336 337 336 336 335 336 338 339 341 342 341 338 336 336 338 339 339 338 334 332 334 335 333 333 332 331 332 333 332 330
346 347 348 348 348 348 345 338 334 334 335 335 335 336 336 336 335 334 333 334 335 335 336 337 339 340 342 344 345 345 345 345 344 343 343 344 344 344 343 341 340 338 338 338 337 337 335 335 334 334 333 333 333 333 333 333 333 333 333 333 334 336 336 337 338 339 338 337 339 341 341 341 339 336 333 334 334 334 334 334 332 331 333 333 332
346 347 349 349 348 348 348 345 341 338 337 337 335 335 335 335 334 333 333 333 334 334 334 334 337 340 343 344 345 346 346 346 345 343 342 342 343 343 343 343 342 340 339 338 338 337 335 334 333 332 332 332 332 332 332 332 333 332 332 332 333 334 334 334 335 338 340 341 342 343 343 342 340 339 337 335 334 333 334 334 334 334 334 334 333
347 349 350 350 350 349 350 350 348 344 342 342 341 339 337 336 335 334 333 333 333 334 334 334 336 339 342 344 345 345 346 345 344 343 342 341 342 343 343 343 343 343 342 341 340 340 339 337 336 335 334 333 331 330 330 331 332 331 330 331 332 333 334 335 337 339 342 343 343 343 343 341 340 340 338 335 334 335 335 335 336 335 334 334 334
348 349 350 350 351 352 352 352 351 348 345 344 345 345 344 343 340 338 337 337 337 336 335 335 335 337 339 341 343 344 344 344 344 344 344 343 342 342 342 343 343 343 343 343 343 342 342 342 342 342 341 340 337 334 332 331 331 331 330 329 330 331 333 334 335 337 340 341 340 341 341 340 338 338 338 335 334 335 336 336 337 335 335 337 337
349 350 350 349 351 353 353 351 350 351 349 347 346 347 348 348 347 346 345 346 346 345 342 339 336 335 336 337 340 342 343 343 343 344 345 345 344 342 341 341 343 344 344 344 344 344 343 343 344 344 345 345 344 342 340 338 336 335 335 335 335 335 336 335 334 333 335 335 335 336 337 336 334 334 336 335 334 335 336 337 337 337 337 339 340
351 351 351 350 351 353 352 351 352 353 353 350 348 347 347 348 350 353 353 352 352 352 351 348 345 343 341 340 341 343 344 343 344 344 344 345 346 345 343 342 342 343 344 344 345 345 345 344 344 345 346 346 347 346 346 345 344 344 343 343 342 342 342 341 339 337 336 335 335 334 334 334 333 334 335 337 337 338 339 339 339 340 340 341 342
350 350 351 351 351 351 350 351 352 353 353 352 350 349 348 347 348 352 354 354 353 354 354 354 352 351 350 348 347 347 347 347 346 345 344 344 345 346 346 344 343 343 343 343 344 344 344 344 345 345 346 347 348 348 348 347 347 347 346 346 346 346 345 345 344 343 342 341 340 338 337 336 337 338 339 340 341 342 343 344 344 344 343 343 343
348 348 349 349 350 350 350 350 350 350 351 352 351 351 351 349 348 349 352 352 353 353 354 355 354 353 353 353 352 352 351 351 350 349 346 345 344 345 345 345 345 344 344 343 344 344 344 345 345 346 346 347 347 347 347 347 347 347 347 347 347 347 347 346 346 346 345 345 344 342 341 341 341 342 343 343 343 344 346 348 348 348 347 347 346
344 345 347 347 348 349 349 349 349 349 349 349 350 350 351 351 351 351 352 352 351 352 354 354 353 353 353 353 352 352 351 351 351 350 348 346 345 345 345 344 345 345 345 345 344 344 344 345 345 346 346 346 346 347 347 348 349 349 349 350 350 349 349 348 348 348 347 347 346 345 344 344 343 344 343 344 343 345 346 348 348 349 349 349 349
339 340 342 343 345 346 346 347 347 349 349 349 350 350 351 351 351 351 351 352 351 352 353 353 353 353 353 353 353 352 352 351 351 350 348 346 345 344 345 345 345 345 345 345 345 345 344 345 345 346 346 347 347 348 349 350 351 352 352 352 352 352 351 350 349 349 349 349 348 347 346 346 345 345 345 345 344 345 346 348 348 349 349 350 350
335 336 337 338 339 341 342 344 345 346 347 348 348 349 350 350 350 351 351 351 351 352 352 352 352 352 352 352 352 352 351 351 350 349 348 346 345 345 345 346 348 348 348 347 347 346 345 345 346 346 347 348 349 350 351 352 352 353 352 352 352 351 350 349 349 349 349 349 349 349 348 348 347 347 346 346 346 346 347 348 349 350 350 350 350
332 332 332 333 334 335 337 340 341 342 343 344 345 345 346 346 347 347 348 348 349 350 351 352 352 352 352 352 352 352 352 351 351 350 349 347 347 346 346 346 347 347 348 349 349 348 347 347 348 348 349 350 351 352 352 352 352 352 351 351 351 350 349 348 349 349 348 348 348 348 349 349 349 348 348 347 347 347 348 348 349 351 352 351 351
329 329 328 328 330 332 333 335 335 336 337 338 339 341 341 342 343 343 342 342 344 347 349 349 350 350 351 351 351 351 352 352 351 351 351 350 350 349 348 348 348 348 349 350 351 351 351 351 350 351 351 351 352 352 352 351 351 351 350 350 350 350 349 349 350 350 349 349 349 348 348 348 349 349 349 349 349 348 349 349 350 351 353 353 353
325 327 327 326 328 331 331 329 328 328 326 327 331 333 335 337 339 339 337 338 340 343 345 346 347 347 349 350 351 351 352 353 353 353 352 352 352 351 351 351 350 351 351 351 351 351 351 352 351 351 351 351 351 351 350 351 350 350 350 350 351 350 350 350 350 350 350 350 350 349 348 347 347 348 349 349 349 349 350 350 350 352 353 354 354
318 322 324 325 327 329 328 326 323 319 316 319 323 325 326 329 331 331 331 333 337 340 342 344 346 346 347 349 349 349 350 350 350 351 351 352 352 352 352 352 351 351 351 351 351 350 350 350 350 349 350 349 349 350 350 350 350 350 351 351 351 351 351 350 350 350 350 350 349 349 349 348 347 347 348 349 349 350 349 349 350 352 354 355 355
314 315 318 320 322 324 324 323 321 316 312 315 319 322 326 330 331 331 332 334 337 340 342 343 345 345 346 347 347 348 349 349 349 349 349 350 351 350 350 351 351 351 351 351 350 350 350 350 350 350 350 350 351 351 351 352 352 352 352 352 352 351 351 350 350 350 350 349 349 348 348 349 349 348 347 348 348 348 348 349 351 353 355 356 356
312 312 313 313 314 316 317 317 317 314 311 312 315 321 328 334 335 335 337 338 340 342 343 344 344 342 340 339 338 338 337 339 342 343 342 343 347 348 349 350 350 350 350 350 350 349 349 349 350 350 350 351 352 352 352 352 353 352 352 352 352 352 351 351 351 350 350 349 349 349 348 348 347 347 346 347 347 348 349 351 352 354 355 355 355
312 311 310 310 309 309 310 310 311 310 310 310 313 320 328 334 335 337 340 341 342 343 343 344 344 339 333 329 328 327 324 324 327 327 324 325 330 334 339 342 345 346 347 347 348 348 348 349 349 349 350 351 352 352 352 352 351 351 351 350 350 351 351 350 351 351 351 351 351 350 349 348 347 347 347 349 350 350 351 352 353 354 354 354 353
309 308 308 307 307 307 307 307 308 308 308 310 312 318 325 331 334 337 339 340 342 343 343 344 343 340 336 334 333 333 331 329 326 323 320 318 317 317 320 325 329 332 335 337 339 340 342 342 341 341 340 341 341 342 341 340 339 339 339 340 341 343 345 347 350 351 350 350 350 350 350 349 350 350 351 351 351 351 351 352 353 353 353 353 353
306 306 306 306 306 306 306 306 306 307 307 308 311 314 319 325 329 332 335 338 340 341 341 342 342 342 341 341 340 340 339 337 334 330 327 324 320 315 313 314 316 319 321 322 324 325 326 327 327 326 325 325 325 326 326 326 326 326 327 328 330 332 335 338 342 344 344 344 346 348 350 351 351 351 351 352 352 351 352 352 352 352 352 353 353
305 305 305 306 306 306 306 306 306 306 306 307 308 310 313 318 322 325 328 331 334 336 337 338 339 339 340 340 341 340 339 337 335 333 331 329 325 319 314 312 313 314 315 315 316 316 317 317 317 317 317 317 317 318 319 320 321 323 324 325 326 327 329 332 335 336 337 338 340 343 346 348 350 351 352 352 352 352 352 352 351 352 352 353 353
305 305 305 305 305 306 306 306 305 305 306 306 306 308 309 312 316 319 321 323 325 328 329 331 333 334 334 335 335 335 334 332 331 331 329 327 324 318 314 313 313 313 314 314 314 314 314 315 314 314 314 314 315 316 317 318 320 322 324 326 326 327 329 332 334 335 335 335 337 338 341 343 345 348 350 351 352 352 351 351 351 351 351 351 351
305 305 304 304 305 305 305 305 305 305 305 305 305 306 307 308 310 312 314 316 318 319 321 322 324 325 326 327 327 327 327 326 325 324 322 320 317 315 313 312 312 313 314 315 315 315 315 315 315 315 315 316 316 317 316 317 318 320 323 325 327 329 330 332 334 335 336 338 339 341 342 343 344 345 347 348 348 349 349 350 351 350 350 350 349
304 304 304 305 305 305 306 306 306 306 306 306 306 306 307 307 307 308 309 311 312 314 315 316 317 318 318 319 319 319 319 319 318 318 318 317 316 314 313 312 313 315 316 316 317 317 317 317 317 318 318 319 319 319 319 320 320 321 322 323 326 329 330 332 333 333 335 338 342 344 345 345 345 346 347 347 347 347 348 350 350 350 350 351 351
303 304 304 305 306 306 306 307 307 307 307 307 306 306 307 308 309 309 309 308 309 310 311 312 313 314 313 314 314 315 316 316 316 316 316 316 316 316 315 315 315 317 318 318 317 318 318 319 321 323 323 323 321 321 321 321 322 323 324 325 328 331 331 332 333 333 333 335 339 342 344 345 347 348 349 349 348 348 349 350 350 350 351 352 353
303 304 304 305 307 307 308 308 308 308 308 308 308 308 307 308 309 310 310 310 310 309 309 310 311 312 312 313 312 312 313 314 315 316 316 316 316 315 315 315 315 317 318 318 319 321 322 323 325 326 327 326 325 324 323 321 320 320 321 322 327 331 334 336 338 338 337 338 339 341 343 345 347 347 348 348 348 348 349 349 349 349 350 351 352
304 304 304 305 306 307 308 308 308 308 308 308 309 309 309 309 309 309 309 310 310 310 310 310 310 311 312 312 313 312 312 312 312 313 314 314 315 316 317 318 319 321 323 324 325 326 327 327 327 328 328 328 328 327 326 325 324 322 321 319 319 321 325 331 335 339 341 342 341 342 344 345 345 346 348 348 348 347 347 348 349 349 350 351 351
303 304 305 305 306 306 306 306 307 308 308 309 310 310 310 310 310 310 310 310 310 310 311 311 311 311 311 311 312 312 313 314 314 314 314 315 316 318 319 320 320 321 324 326 327 328 328 327 327 327 327 327 327 327 327 327 326 326 325 324 322 319 317 318 322 328 333 337 339 341 342 343 344 346 347 347 346 345 346 347 348 349 350 350 349
303 304 304 305 306 306 307 306 306 307 308 309 310 311 311 311 311 311 311 311 311 311 311 311 311 312 312 312 312 312 313 316 317 318 318 318 319 319 320 320 319 317 319 322 325 326 326 326 326 326 325 325 325 325 325 325 325 325 324 323 323 322 320 317 316 316 319 324 328 331 333 337 340 342 342 341 341 342 344 346 347 348 348 348 348
303 303 304 305 305 306 306 307 307 307 308 308 309 310 310 311 311 312 312 312 312 312 312 312 312 312 312 313 314 314 314 315 317 318 319 319 319 318 318 318 317 315 316 318 320 321 322 323 323 323 322 321 321 320 320 320 320 319 319 318 317 317 317 317 316 314 313 314 315 318 321 325 328 331 332 332 333 337 341 344 345 346 347 348 348
303 303 303 304 305 305 306 307 307 307 307 308 309 309 310 310 311 312 312 312 312 312 312 312 312 313 313 313 314 314 314 315 316 317 317 317 317 317 317 317 317 317 318 318 318 318 319 319 319 319 318 318 317 317 317 317 316 316 315 315 315 315 315 315 315 314 313 312 312 313 315 317 319 321 323 324 326 330 335 339 341 343 345 346 346
303 303 304 304 304 305 306 307 307 307 307 308 308 309 309 310 310 311 311 312 312 312 312 312 312 313 313 313 313 314 314 314 314 315 315 316 317 318 319 319 319 319 318 317 317 317 317 317 317 317 317 317 317 316 316 316 316 316 316 315 315 315 315 314 314 314 313 313 312 312 313 314 316 317 319 320 321 324 327 331 334 336 337 339 340
303 303 304 304 305 305 306 307 307 307 308 308 308 308 309 309 310 309 309 310 311 311 312 312 312 312 313 313 313 313 314 314 314 314 314 314 315 316 317 318 318 317 317 316 317 317 317 317 317 317 317 317 317 317 316 316 317 316 316 316 315 315 314 314 314 314 314 314 313 313 313 313 314 315 315 317 318 320 321 323 326 328 331 332 333
303 303 303 304 305 305 306 307 307 307 307 308 308 308 309 308 308 308 308 309 310 310 311 311 311 312 312 312 312 312 312 313 313 313 313 313 313 314 315 316 316 316 316 317 317 317 317 318 317 317 317 317 317 316 317 316 316 316 316 315 315 314 314 314 314 314 314 314 313 313 313 312 312 313 314 314 315 317 318 319 321 323 325 328 329
303 303 303 304 304 305 306 306 307 307 307 307 308 308 307 307 307 307 307 308 308 308 308 309 309 310 311 311 312 312 312 312 312 312 312 312 313 313 314 314 315 316 316 317 318 318 318 318 317 317 316 316 316 316 316 316 316 315 315 315 314 314 314 314 314 313 313 313 313 313 313 313 312 312 312 313 314 314 315 316 317 319 321 323 325
303 303 303 303 304 305 305 306 306 307 307 307 306 306 306 305 306 306 306 306 306 306 307 307 308 308 308 309 309 310 310 310 311 311 311 312 312 313 313 314 314 315 316 317 317 317 317 317 317 316 316 315 315 315 315 315 315 315 314 314 314 314 314 314 313 313 313 313 313 313 313 313 312 312 312 312 313 313 314 315 315 316 318 319 320
303 303 303 303 304 304 305 305 306 306 306 306 305 305 304 304 304 304 304 305 305 305 306 306 306 306 306 307 307 308 308 309 309 309 310 310 311 311 312 313 314 314 315 316 316 316 316 316 316 315 315 315 315 315 314 314 314 314 313 313 313 313 313 313 313 313 313 313 313 313 313 313 312 312 312 313 313 313 314 314 314 315 316 318 319
302 302 302 303 303 303 304 304 304 304 304 304 304 303 303 303 304 304 304 304 304 304 304 304 304 304 305 305 305 306 306 306 306 307 307 308 308 309 310 311 312 313 314 315 315 315 314 314 314 314 314 314 314 313 313 313 313 312 312 312 312 312 313 312 312 312 313 313 313 313 314 314 314 314 313 314 314 314 313 313 313 314 315 317 318
301 301 302 302 302 302 303 303 303 303 302 302 302 302 302 302 302 302 302 302 302 302 303 303 303 303 303 303 303 303 303 303 303 303 304 305 306 308 309 309 310 311 312 313 314 314 314 314 314 314 314 313 313 312 312 312 311 311 311 311 312 312 312 312 312 312 312 313 313 314 314 315 316 316 315 315 316 315 315 314 314 315 316 317 318
300 300 301 301 301 301 301 301 301 301 301 301 301 301 301 301 300 300 301 301 301 301 301 301 301 301 300 300 300 300 300 301 302 302 302 303 304 306 308 309 310 311 312 313 313 313 313 314 314 313 313 312 312 311 310 310 310 310 310 311 311 312 312 312 312 312 312 313 313 313 313 314 315 316 317 317 316 316 316 315 316 316 317 318 319
299 299 300 300 300 300 300 300 299 299 299 300 300 299 299 299 298 299 299 299 299 299 299 299 299 298 298 298 299 299 300 300 301 301 301 301 302 304 306 308 309 310 311 312 312 313 312 313 312 312 312 311 311 310 309 309 309 309 309 310 311 311 311 311 312 312 312 312 312 312 312 313 314 315 316 317 317 316 316 316 316 317 318 319 320
298 298 298 299 299 299 299 299 298 298 298 298 298 298 298 298 297 298 297 297 297 297 297 297 297 297 297 298 298 299 299 300 300 300 301 301 301 303 304 306 307 308 309 310 310 311 311 311 311 310 310 309 309 308 308 308 308 309 308 308 309 310 310 311 311 312 312 312 312 312 312 313 313 314 315 316 316 316 316 316 317 318 320 320 321
297 297 297 297 298 298 298 298 298 297 297 297 297 297 297 297 297 297 297 297 297 296 296 296 296 296 296 297 298 298 299 299 300 300 301 301 301 301 303 304 305 306 306 307 307 308 308 308 308 308 308 308 307 308 308 308 308 308 307 307 308 309 309 310 311 311 312 312 311 311 312 312 313 313 314 315 316 316 317 317 318 319 320 321 322
296 296 296 296 296 296 297 297 297 297 297 297 297 296 296 296 296 296 296 296 296 296 296 295 295 295 296 296 297 297 298 299 299 299 300 300 300 300 301 301 302 303 303 304 305 305 305 305 306 306 306 306 307 307 307 307 306 306 306 306 307 308 309 309 310 311 311 310 310 311 311 311 312 313 314 315 316 316 317 318 319 320 321 322 323
296 296 296 296 295 295 295 295 296 296 296 295 295 295 295 295 295 295 295 296 295 295 295 295 295 295 295 295 296 297 298 298 299 299 299 299 299 299 299 300 301 301 301 302 302 303 303 303 304 304 304 305 305 306 306 306 306 306 306 306 307 307 308 308 309 310 310 310 310 310 310 311 311 312 313 314 315 316 317 318 319 320 321 322 323
Wind_Speed
21 21 21 21 22 23 23 23 23 23 21 20 19 18 16 15 14 14 13 12 12 12 11 11 11 12 12 11 11 10 9 8 8 8 8 8 8 8 8 9 9 8 7 7 7 8 8 8 8 8 9 10 10 10 10 10 10 10 10 10 10 9 10 11 13 15 14 12 11 10 9 11 11 11 12 12 11 12 13 13 14 15 16 16 17
20 21 21 22 22 22 23 24 24 24 23 22 21 19 17 16 15 15 14 14 13 13 13 12 12 13 13 13 12 11 10 9 9 9 9 9 9 9 9 10 10 9 9 8 8 9 9 9 9 9 10 10 10 10 10 11 11 10 10 11 11 10 11 12 14 17 18 16 14 11 10 11 11 10 11 12 12 12 12 13 14 15 15 16 17
21 21 21 22 22 22 23 24 25 25 24 23 22 20 18 16 15 15 15 14 14 14 14 14 14 14 14 14 13 11 10 10 9 10 10 9 9 10 10 11 11 11 11 10 9 10 10 10 10 9 10 11 11 11 11 11 11 11 10 11 12 12 12 13 15 17 19 17 14 11 11 11 10 10 11 12 12 13 13 13 14 15 15 16 16
24 23 22 21 22 23 23 24 25 26 25 24 23 21 20 18 16 16 15 14 15 15 14 14 14 14 15 14 13 12 11 10 10 10 10 10 10 10 10 12 12 12 12 11 11 11 11 12 11 10 11 12 12 11 12 12 12 12 12 12 12 13 13 14 15 16 18 17 13 11 11 11 10 10 11 12 12 13 14 14 15 15 15 16 17
28 27 25 22 22 23 24 25 26 26 26 24 23 22 21 19 19 18 17 16 16 16 15 15 15 15 15 15 14 13 11 11 11 10 9 9 9 10 10 11 12 13 13 13 12 12 12 13 12 12 12 13 13 13 12 13 13 13 13 13 13 14 14 15 16 16 17 16 14 12 11 12 13 12 12 13 14 14 14 15 16 16 17 17 18
30 29 28 26 24 23 23 25 26 26 26 25 24 23 22 21 20 20 19 18 18 17 17 16 16 15 15 14 14 13 12 11 11 10 9 9 9 10 10 11 12 13 13 14 14 13 13 13 13 12 13 14 14 13 13 13 14 14 14 13 13 13 14 15 15 16 16 15 15 14 14 14 16 15 13 15 17 17 18 19 18 17 18 20 20
31 30 29 28 26 23 23 24 25 26 26 25 25 24 23 22 22 21 21 20 19 19 18 18 17 15 14 14 13 13 12 12 11 10 9 9 9 9 10 10 11 11 12 13 13 14 14 13 13 13 13 14 14 14 14 14 15 15 15 14 15 15 15 15 16 17 17 17 17 17 17 17 18 18 16 16 18 20 21 23 22 20 20 22 23
30 29 28 28 27 25 23 23 24 24 24 24 25 25 24 24 23 22 22 22 21 20 20 19 18 16 15 14 14 13 13 14 13 12 11 10 9 9 9 10 11 11 11 12 12 12 13 13 13 13 13 14 14 15 15 15 16 16 15 15 16 16 17 17 17 17 18 19 20 20 20 20 20 20 19 19 20 21 22 24 25 25 25 25 25
30 28 27 27 27 27 26 24 24 23 23 23 23 24 24 25 24 24 24 23 22 22 21 20 20 18 17 16 15 15 15 15 15 14 13 12 11 10 10 10 11 11 11 11 11 11 11 11 12 12 13 13 14 15 15 15 16 17 16 15 15 16 16 16 17 17 18 20 22 22 23 24 23 23 23 22 23 23 23 25 28 28 28 29 27
28 28 27 27 27 28 28 25 23 23 23 23 23 23 23 23 24 24 24 23 22 22 22 22 22 20 19 18 17 16 16 16 15 15 15 14 13 12 12 11 11 12 13 13 12 12 12 12 12 12 13 13 13 14 15 16 16 17 16 16 16 17 18 18 18 19 20 22 23 23 24 26 25 25 26 26 26 26 27 28 30 30 30 31 31
28 28 27 27 28 28 27 25 23 23 23 24 24 24 23 23 23 23 23 22 21 21 21 21 21 20 20 19 18 17 16 15 15 15 15 15 15 15 15 14 14 15 16 16 16 15 15 15 14 14 14 14 14 14 14 14 15 15 16 16 16 18 19 20 20 20 22 23 24 24 25 27 26 25 27 27 28 28 29 30 31 31 31 33 34
23 24 25 26 27 26 25 25 26 25 24 24 24 24 24 24 24 23 23 22 21 20 20 20 19 19 19 19 18 18 16 16 15 16 16 17 17 17 17 17 17 18 18 18 18 18 17 17 16 16 16 15 14 14 15 15 15 16 16 17 17 18 19 21 22 22 23 24 26 26 26 27 26 25 25 27 28 29 31 31 32 33 33 34 35
16 17 19 22 23 21 19 21 23 23 23 24 24 24 24 25 26 25 25 25 24 23 22 20 19 19 19 19 19 19 18 17 17 17 17 18 18 18 18 18 18 19 19 19 19 19 18 18 17 17 16 15 15 15 15 16 16 17 18 19 20 20 21 22 23 24 25 26 27 28 26 26 27 25 24 25 28 30 31 32 33 34 34 34 35
12 13 15 15 16 15 14 15 17 18 19 20 20 20 21 23 25 26 26 27 27 26 24 23 22 21 21 21 21 21 21 21 20 20 19 19 20 20 20 19 19 19 19 19 19 19 19 18 18 18 16 15 15 15 16 17 18 19 20 22 22 22 23 23 24 25 26 27 29 29 27 27 28 27 25 25 28 30 31 33 33 34 34 35 35
12 13 13 12 12 14 14 14 16 16 15 16 15 14 15 18 21 24 26 28 29 28 26 25 24 23 23 22 23 23 23 23 23 23 22 21 22 22 22 21 21 20 19 19 19 19 19 20 20 19 19 18 18 18 19 20 22 23 24 25 26 26 26 26 26 27 28 29 30 30 30 29 29 29 28 27 29 30 31 33 34 34 34 35 35
11 11 10 9 9 10 11 11 12 13 14 14 15 15 15 17 18 20 20 22 24 26 25 24 24 24 23 23 23 23 23 23 23 23 23 23 22 22 22 21 21 21 21 21 21 21 22 22 22 22 22 22 22 22 22 23 25 27 28 29 29 29 29 28 28 29 30 31 32 32 32 31 30 30 30 29 29 30 31 33 34 33 33 35 36
11 11 10 9 7 4 4 4 6 8 10 11 12 14 17 18 18 19 19 18 17 18 20 21 20 19 19 20 20 21 21 21 22 21 21 22 22 22 22 21 20 20 20 21 21 22 22 22 23 24 24 24 23 23 24 26 27 29 30 30 31 31 31 29 29 29 29 31 32 34 34 33 32 32 31 30 30 29 31 34 34 31 31 33 35
12 11 11 10 9 8 6 3 2 3 5 7 7 9 12 15 15 16 17 18 16 14 13 13 12 12 13 14 15 16 16 17 18 19 19 20 21 22 22 22 22 21 21 21 21 21 21 21 23 24 24 25 25 26 27 28 29 30 30 31 31 31 31 30 30 30 30 30 31 32 34 34 34 33 33 31 30 30 32 34 33 31 30 32 33
10 10 10 9 8 8 8 5 2 1 0 2 4 6 8 9 10 10 11 14 16 14 12 11 10 10 10 10 11 12 12 12 13 15 16 18 19 20 21 22 23 22 22 22 22 21 22 23 24 25 27 28 29 29 29 29 30 30 30 30 31 31 30 30 31 31 30 29 30 31 33 34 34 35 34 33 31 31 32 33 32 31 31 31 31
8 7 7 6 5 5 5 4 3 4 4 4 3 4 5 6 7 8 9 11 13 13 13 13 13 13 12 13 13 12 10 11 13 14 15 16 17 18 19 20 21 21 22 22 22 22 23 24 25 27 28 29 30 30 29 29 29 30 29 29 30 30 30 30 31 30 30 30 30 30 32 33 34 35 35 35 33 32 32 32 31 31 31 31 30
5 4 3 3 2 2 1 2 3 4 5 5 4 4 4 3 4 5 7 8 8 8 9 10 11 13 13 13 14 11 8 8 9 10 12 14 15 16 17 18 19 20 21 21 22 23 23 25 26 27 28 29 29 28 28 27 28 28 28 27 27 28 29 29 29 28 28 29 30 30 31 31 32 34 35 35 35 34 33 32 31 30 29 30 30
2 1 1 1 2 2 2 1 1 2 3 2 1 1 2 0 2 4 5 5 4 5 6 7 9 11 11 11 11 11 9 9 9 7 6 9 11 12 14 15 16 18 18 19 20 22 23 24 25 26 26 26 25 25 25 25 25 25 25 25 26 26 27 28 27 27 27 28 29 31 31 31 31 32 32 33 33 33 33 32 31 29 29 28 29
3 3 3 3 3 4 5 5 5 5 4 3 3 3 2 2 3 4 4 4 3 4 5 6 6 6 6 5 5 6 7 8 9 8 7 8 10 11 13 14 15 15 16 17 18 20 21 21 22 23 22 21 21 22 22 23 23 23 23 23 24 25 25 26 26 27 28 28 30 31 31 31 31 31 30 30 31 31 31 30 29 29 29 29 29
6 6 6 6 5 6 6 6 7 7 6 5 6 6 6 5 5 5 6 5 5 5 5 6 6 6 6 5 5 4 2 1 3 5 6 7 9 11 12 14 15 15 16 17 18 19 20 21 21 21 20 20 20 21 22 23 23 23 23 24 24 25 25 25 26 26 27 27 28 29 29 29 29 30 29 29 29 29 29 28 27 28 29 31 33
9 8 8 7 7 7 7 6 7 7 6 7 7 8 8 8 7 7 7 7 7 7 7 7 8 9 9 8 6 5 4 2 2 4 5 7 9 10 12 14 14 15 15 16 16 18 19 19 19 19 19 20 20 21 22 22 22 23 23 24 25 25 25 25 25 25 26 26 25 25 25 25 25 26 26 26 27 28 29 29 29 29 32 34 36
10 9 9 8 7 7 8 7 8 8 8 8 9 9 10 10 9 9 8 8 9 9 9 9 10 11 11 11 10 9 9 8 9 9 9 10 12 13 14 15 15 15 15 16 16 16 17 17 18 18 18 19 20 20 20 21 21 21 21 22 23 24 24 24 25 26 27 26 25 25 24 23 22 22 22 23 25 27 28 30 31 32 33 33 34
10 10 10 9 9 8 8 8 9 9 9 10 10 11 11 11 12 11 11 11 11 11 11 11 12 12 12 12 12 12 13 13 14 14 15 15 16 16 16 17 17 17 17 17 17 17 17 17 17 17 18 19 19 19 20 20 20 20 20 20 20 21 21 22 23 24 25 25 26 26 25 23 22 21 20 21 22 23 24 26 29 29 29 28 29
11 11 10 10 10 10 10 10 10 10 10 10 11 12 12 13 13 13 14 14 14 13 13 14 14 15 15 15 16 16 16 17 18 19 20 20 19 19 18 18 19 19 19 19 19 19 18 17 17 17 17 18 18 18 18 18 18 18 18 18 18 19 19 20 20 21 22 23 24 25 25 24 23 23 22 22 23 22 22 23 25 26 26 26 28
10 10 10 10 10 10 10 10 10 10 10 10 10 11 12 13 13 13 14 15 16 16 16 16 16 16 16 17 18 18 19 19 19 20 21 22 22 21 20 19 19 20 20 20 20 20 19 19 18 18 18 18 18 18 18 18 17 17 16 16 16 16 17 18 19 19 20 21 22 23 23 23 23 23 24 24 25 24 23 22 23 25 26 27 29
11 10 10 10 10 9 9 9 9 9 9 9 9 10 11 12 13 13 14 15 15 16 17 17 17 17 17 17 18 18 19 19 19 20 21 22 23 22 21 20 19 19 20 20 20 20 19 19 18 17 17 17 17 18 18 18 17 17 16 16 15 15 16 16 17 18 19 20 21 22 22 23 24 24 25 26 27 26 24 22 23 24 25 26 28
12 11 10 9 9 9 9 10 10 10 10 10 10 10 11 11 12 13 14 15 16 16 17 17 18 18 19 19 18 18 18 18 19 20 20 21 22 22 22 21 19 19 20 20 20 20 19 18 17 15 15 15 15 15 16 16 16 16 17 17 16 16 16 16 16 18 19 20 21 22 22 23 24 25 26 27 28 28 26 23 22 22 23 24 26
13 12 11 10 10 10 10 10 11 12 12 12 12 12 12 12 11 11 12 13 14 15 16 17 17 18 18 19 19 19 18 18 18 18 18 19 20 20 20 20 19 18 18 18 18 18 18 17 15 14 14 14 14 14 15 15 16 16 17 18 18 18 17 17 17 17 19 21 22 23 23 24 25 26 26 27 28 28 26 24 22 23 24 25 27
14 13 12 11 12 12 13 12 12 12 13 13 13 13 14 14 13 12 12 12 12 12 13 14 15 16 17 18 19 18 18 18 18 18 18 18 18 17 16 16 15 14 14 14 14 14 15 15 14 14 15 16 17 17 17 17 18 19 19 20 21 21 21 20 20 20 21 22 23 24 25 25 26 26 26 26 28 28 25 23 22 23 23 24 25
15 14 14 13 13 14 16 16 15 14 14 14 14 15 15 15 15 15 15 14 13 11 10 10 11 13 14 15 16 17 17 17 17 18 18 17 16 16 14 13 13 13 13 13 13 14 14 14 14 15 17 18 19 21 21 22 23 23 24 24 25 25 25 24 23 24 24 25 26 26 26 27 27 28 28 28 28 28 25 22 22 20 19 19 21
17 16 15 15 15 16 17 18 17 17 16 16 16 16 16 16 16 16 16 16 15 14 12 11 10 10 10 10 12 14 16 17 17 17 17 17 16 16 15 14 15 15 15 15 15 16 17 17 18 19 20 21 22 24 25 26 27 28 28 29 29 30 30 29 27 27 27 28 29 29 29 30 30 31 32 31 29 27 25 24 23 22 20 20 21
20 18 17 17 16 16 17 18 18 18 18 18 17 17 17 16 16 16 16 16 16 16 15 13 11 10 9 9 10 12 14 16 18 18 18 18 18 17 17 17 18 17 17 16 17 18 19 21 22 23 24 25 26 27 28 28 29 30 30 30 30 30 30 30 30 30 30 30 31 31 31 32 32 33 34 34 31 27 24 22 22 24 26 26 27
22 21 20 19 18 18 18 18 18 17 18 18 18 18 17 17 16 17 18 18 17 18 17 16 15 13 10 9 10 12 13 15 16 17 17 17 16 16 15 15 16 17 17 17 18 20 20 22 23 24 25 25 26 27 27 27 27 27 27 28 28 28 28 28 28 29 30 31 31 32 32 32 33 33 34 35 34 31 27 24 24 26 29 30 30
22 22 21 21 20 20 19 18 18 17 17 17 18 17 17 16 17 18 19 19 19 19 19 18 18 17 15 12 12 13 14 14 15 16 16 15 14 14 14 14 15 16 17 18 19 21 22 22 23 24 24 25 26 26 26 26 25 25 25 26 26 26 27 27 27 27 28 30 31 32 32 33 33 34 34 35 36 36 34 32 31 31 32 33 33
23 22 22 22 22 21 19 19 18 17 17 16 16 14 12 13 16 18 19 20 20 21 20 19 18 18 17 16 15 15 15 15 15 16 16 15 15 16 16 17 18 18 19 19 20 21 22 23 24 24 24 25 25 26 26 26 26 26 25 26 26 26 27 27 28 28 28 29 31 32 33 33 34 35 36 36 37 38 39 39 37 36 36 36 36
23 23 23 23 22 22 20 18 18 17 16 15 14 13 13 14 16 17 16 16 16 15 15 16 17 18 18 18 18 18 19 18 18 18 18 18 18 18 19 20 21 21 20 20 21 22 23 23 24 25 25 26 26 26 26 26 27 27 26 26 27 27 27 27 28 29 29 30 31 33 34 34 35 36 37 38 39 39 40 41 41 40 39 38 38
23 23 23 23 22 22 20 18 17 17 16 16 16 16 15 15 14 12 11 11 11 12 13 15 16 17 18 19 19 20 20 20 20 20 20 20 20 20 20 21 22 22 21 20 20 22 23 24 25 26 26 27 27 27 27 27 27 28 28 28 28 29 29 28 29 30 30 31 32 33 34 35 36 37 38 39 40 41 42 42 43 43 43 42 41
23 23 23 22 21 20 19 18 17 17 17 17 16 15 14 13 11 11 11 10 11 12 13 13 13 15 17 18 19 19 19 19 20 20 21 21 22 22 22 22 22 23 22 21 22 23 25 25 26 27 28 28 28 28 28 28 28 29 30 30 31 32 32 32 32 32 32 33 33 33 35 36 37 38 39 39 40 42 43 43 44 44 44 45 44
23 22 22 20 19 18 17 16 16 16 16 15 14 13 12 11 11 11 11 11 11 11 12 12 13 15 16 18 18 18 19 19 19 20 21 22 22 23 23 22 22 22 21 21 23 25 27 27 27 27 28 29 30 30 30 29 29 30 31 32 33 34 35 35 35 35 34 34 34 34 35 36 37 38 39 40 41 42 43 44 44 44 44 45 45
22 20 18 17 16 15 15 15 15 14 13 12 11 10 10 10 10 11 11 12 12 12 12 13 14 15 15 16 17 19 20 20 20 21 21 21 22 22 22 22 23 22 21 21 24 27 29 29 29 29 30 31 32 32 32 32 31 32 33 34 34 35 35 36 37 36 36 35 35 35 35 36 37 38 39 40 42 43 44 45 45 45 44 45 45
18 16 15 14 14 14 14 13 12 11 10 10 10 9 9 10 11 12 12 13 13 12 13 14 14 14 14 15 18 21 23 22 22 21 21 19 18 18 18 19 21 21 21 22 25 28 29 30 30 30 30 30 31 32 34 35 35 35 34 34 35 35 35 36 37 37 36 36 36 36 36 36 36 38 39 41 42 43 44 45 45 45 44 45 46
14 13 13 13 13 13 11 10 9 8 9 10 11 12 12 12 12 12 12 12 13 13 14 14 14 15 17 19 21 23 23 22 21 21 20 19 17 16 15 16 18 19 20 22 24 26 27 28 29 29 29 29 30 32 34 36 37 37 35 33 34 35 35 36 37 37 36 36 36 36 37 38 38 38 38 40 42 44 45 45 45 45 44 44 45
12 12 13 13 13 12 11 10 9 8 9 13 15 15 15 15 14 13 13 13 13 13 14 14 16 19 21 23 24 23 22 21 20 20 20 20 19 17 17 17 19 20 21 23 25 26 26 27 29 30 31 32 34 36 37 37 36 36 35 34 34 35 35 36 37 37 36 36 36 37 38 39 40 39 38 38 41 44 45 45 45 44 44 44 44
11 12 12 12 12 12 12 12 11 11 12 14 15 15 15 15 15 15 15 15 15 16 17 18 19 21 21 22 21 21 21 21 21 20 20 20 19 19 20 21 22 23 25 26 27 29 30 31 32 34 35 37 39 40 40 37 35 35 36 37 37 37 36 36 36 36 36 36 37 37 38 40 41 42 40 39 40 42 44 45 45 44 43 43 43
11 12 12 12 12 12 12 12 12 13 13 14 14 14 14 15 15 15 16 17 18 19 20 20 20 20 20 20 19 20 20 20 20 19 20 20 21 21 21 23 24 26 27 29 30 31 32 33 34 36 37 39 39 38 37 35 36 38 40 41 40 39 37 36 36 36 36 36 37 37 38 40 42 43 43 42 42 42 43 44 44 43 42 42 42
11 11 12 12 12 12 12 12 12 13 13 13 14 14 14 15 15 16 18 19 19 20 20 20 20 20 20 20 20 20 20 20 20 21 22 22 22 23 23 24 25 26 28 30 31 32 33 33 34 34 35 36 36 36 37 39 41 42 43 42 41 39 38 37 36 36 35 36 37 38 39 41 43 43 44 44 44 44 43 42 42 41 41 40 41
11 12 12 13 12 12 12 12 12 12 12 12 13 13 14 15 16 17 18 19 20 20 20 21 21 20 20 20 20 20 20 21 21 21 22 23 24 25 27 27 28 29 29 30 32 32 33 34 34 34 35 36 36 38 39 41 42 43 42 41 40 39 38 37 36 35 34 35 36 38 40 41 42 43 43 44 43 43 42 41 39 39 38 38 38
Wind_Direction
220 217 217 221 222 221 221 222 223 225 226 226 227 227 228 229 229 229 231 232 231 232 236 239 238 237 236 231 227 234 243 246 249 254 258 261 261 259 256 256 257 255 252 250 251 256 263 268 270 269 269 272 273 274 278 286 289 290 293 297 299 295 291 295 300 301 304 309 308 308 313 313 313 318 318 316 315 314 315 319 323 326 327 325 322
222 219 217 219 222 222 222 221 223 225 227 228 227 228 230 230 230 231 231 232 234 237 239 242 240 238 236 234 234 240 251 260 265 268 271 273 272 270 267 265 265 265 263 261 259 261 266 272 278 281 282 282 282 281 283 289 292 292 294 296 295 289 283 284 289 294 300 306 308 311 319 321 323 330 331 327 326 323 320 322 325 325 326 324 320
227 225 223 222 221 222 223 223 223 225 227 228 229 229 230 230 231 233 234 235 238 241 242 242 241 239 237 237 237 242 254 264 272 277 281 282 280 277 273 270 268 267 266 266 263 264 267 271 276 281 282 282 281 281 282 284 287 290 293 293 292 288 282 280 283 288 296 305 313 321 327 329 331 335 334 330 329 328 326 328 329 328 328 326 321
233 231 231 229 227 225 224 224 224 225 227 228 230 231 231 230 231 232 235 237 240 243 244 242 241 241 242 243 243 245 250 255 261 269 278 282 281 277 274 272 269 266 265 265 264 266 268 272 277 279 278 277 277 278 278 278 282 286 289 290 289 287 282 281 283 286 292 300 311 320 323 324 323 327 328 325 323 325 325 327 329 328 328 326 322
240 237 236 236 234 231 227 225 225 226 228 229 230 231 232 232 232 233 235 234 236 240 241 240 239 240 243 247 249 251 252 254 258 264 272 279 282 282 279 277 274 271 268 267 267 269 271 274 278 278 274 273 275 276 276 278 281 284 287 289 288 285 281 280 281 283 286 293 301 307 310 311 311 313 320 319 316 316 317 319 322 323 324 321 318
243 243 241 239 239 237 233 229 227 227 229 231 232 232 233 233 234 236 237 235 234 235 237 239 238 238 241 244 249 253 255 257 259 262 267 273 278 282 281 281 280 277 274 272 272 272 275 277 279 278 276 275 276 276 275 276 278 281 283 286 287 285 282 279 279 280 281 284 289 293 297 301 301 302 308 312 312 312 315 314 314 317 320 318 314
243 245 245 244 242 242 240 234 230 230 231 232 234 235 236 236 237 238 239 239 237 235 235 237 238 238 239 241 246 250 252 253 255 256 258 263 271 275 279 282 283 283 280 277 274 273 274 276 277 278 278 279 281 281 280 278 277 278 279 282 285 285 283 280 277 277 279 281 284 288 292 295 295 296 301 305 306 310 315 314 312 314 319 318 315
243 245 245 245 244 244 245 241 236 235 235 235 237 238 238 239 240 240 240 240 239 237 237 237 236 235 235 237 240 244 246 247 248 250 250 252 257 262 270 278 283 286 286 285 282 279 277 276 277 277 279 281 283 285 286 285 283 281 281 281 284 285 285 284 280 279 282 285 286 290 294 294 293 296 300 302 304 308 313 314 313 316 318 317 316
241 242 241 242 242 242 242 240 236 235 234 236 238 240 242 242 242 241 240 239 239 239 238 238 237 236 235 237 237 239 243 245 246 248 248 246 245 248 257 267 275 281 285 288 290 288 287 286 285 286 286 285 284 284 284 286 286 286 286 285 285 285 285 284 281 280 283 286 288 292 295 294 295 300 302 303 306 310 312 312 312 315 316 315 314
238 241 240 241 241 240 238 238 236 233 230 230 233 236 239 242 243 241 238 237 239 239 239 239 239 240 240 240 240 241 242 245 248 251 252 250 247 245 246 252 260 269 276 280 283 286 289 292 293 294 295 292 288 285 284 285 286 288 289 290 290 291 290 287 283 281 281 282 284 288 292 292 295 300 303 304 306 308 310 311 311 313 315 314 312
233 237 239 240 240 240 241 243 243 238 232 230 231 233 235 237 239 241 241 239 239 240 241 241 241 243 245 246 246 246 246 247 250 254 256 256 254 251 248 248 253 263 270 274 276 279 282 284 287 289 291 292 291 289 287 286 286 287 289 290 292 294 294 293 290 287 286 285 284 286 289 291 294 299 303 305 307 308 309 310 310 312 313 313 311
229 232 233 236 240 243 244 246 246 243 238 236 236 236 236 234 233 237 240 240 239 239 241 242 243 245 249 251 253 254 254 254 255 257 259 260 260 259 255 253 255 261 269 274 277 278 278 279 281 283 285 288 291 291 291 289 289 290 290 290 289 289 290 292 292 292 291 290 289 289 289 292 295 300 304 307 308 308 309 309 309 309 309 308 307
225 225 224 230 237 242 243 246 248 245 239 238 240 242 241 239 238 241 242 240 239 240 240 240 243 246 250 254 257 259 260 261 262 263 264 264 266 267 265 262 261 262 267 273 278 279 278 277 276 275 277 280 285 288 290 290 291 291 291 290 289 287 288 289 290 291 291 291 290 289 290 292 295 298 303 306 306 307 307 307 307 306 304 302 301
182 188 197 208 219 224 226 232 238 238 233 233 237 243 248 249 250 252 251 246 243 241 240 241 243 246 249 252 255 258 260 262 264 265 266 266 267 269 270 270 267 266 268 272 276 277 275 272 270 268 269 271 274 278 282 285 287 287 287 286 286 285 285 285 286 287 288 288 288 288 288 289 291 294 298 301 301 303 305 305 305 303 300 298 298
131 148 164 173 185 194 196 202 212 217 221 224 227 234 245 250 251 252 253 252 250 244 241 242 244 246 249 251 253 256 259 262 263 264 266 268 269 269 270 270 269 268 268 271 274 273 269 266 266 266 266 267 271 276 281 283 284 285 285 285 284 283 282 282 283 283 282 282 283 285 285 286 287 290 292 295 297 299 300 301 302 300 297 295 295
98 109 121 129 150 170 173 177 192 203 211 220 224 224 226 232 236 237 240 246 250 247 243 242 244 246 248 250 252 254 256 258 260 262 264 266 267 268 270 271 271 270 269 270 272 271 269 267 266 268 270 272 275 279 281 282 283 285 287 289 289 288 288 289 290 287 284 281 279 279 280 282 284 286 287 290 294 296 297 297 297 297 295 294 293
81 84 87 89 98 118 138 159 190 205 212 219 225 226 226 228 229 230 233 235 240 244 244 242 243 247 249 251 252 253 254 255 257 259 259 260 261 264 266 269 271 270 270 271 271 271 270 269 270 272 274 275 277 279 279 281 284 287 290 292 293 293 295 297 296 293 289 285 280 278 277 277 278 281 283 286 290 293 294 294 296 297 294 291 292
72 72 75 75 74 73 79 114 191 214 214 215 223 232 235 234 231 232 237 237 233 234 237 238 240 245 250 253 255 256 257 259 260 259 257 256 258 260 262 265 267 269 270 270 271 272 272 272 272 273 273 274 276 277 280 283 286 289 292 293 294 296 298 299 296 292 290 287 283 280 277 275 274 275 277 280 284 289 291 292 296 295 289 288 291
74 67 65 62 62 71 80 91 108 93 145 213 226 237 241 240 241 244 248 248 245 244 244 242 243 246 249 252 255 256 256 257 257 255 254 254 256 257 260 261 263 265 266 267 268 269 270 270 270 271 272 275 277 279 282 284 287 289 291 292 294 296 299 298 295 293 292 291 289 284 279 276 274 274 275 277 280 283 286 289 293 292 287 286 290
78 77 76 68 58 59 59 52 57 60 42 19 333 293 280 270 266 264 257 254 254 252 248 243 240 243 246 244 243 242 241 241 243 244 245 247 248 250 252 254 256 257 259 261 263 264 264 266 267 270 272 275 277 280 282 284 286 287 288 290 292 295 297 295 293 293 293 293 293 290 285 280 277 276 277 279 281 283 284 287 289 289 286 286 288
70 80 99 108 104 89 51 17 39 49 34 22 10 345 332 309 279 263 246 243 242 236 234 231 228 230 234 234 231 224 220 228 235 240 245 246 246 247 248 250 253 254 256 258 260 261 262 264 266 269 272 275 277 279 281 282 284 285 287 290 292 294 294 293 292 292 292 292 293 292 289 285 282 280 280 281 282 284 285 286 286 286 285 285 286
45 43 76 175 207 208 218 245 314 351 347 354 45 7 356 300 226 224 223 228 226 206 195 197 208 218 226 233 235 233 232 233 230 235 256 260 259 260 259 258 259 260 260 260 261 263 266 268 270 272 274 277 279 280 281 282 284 286 289 290 291 291 292 293 294 294 293 293 292 291 290 289 288 287 286 285 285 285 286 286 284 283 282 281 283
311 302 296 287 274 261 256 257 264 276 283 260 217 209 201 183 185 194 195 200 205 194 185 187 195 201 204 212 220 226 242 252 250 253 268 271 267 268 269 268 268 268 269 270 272 274 276 277 278 279 281 282 282 282 282 283 284 286 287 287 287 288 290 293 295 295 295 295 295 294 295 295 294 292 290 288 288 288 288 286 283 283 283 283 284
302 296 293 294 291 280 272 271 273 276 275 256 230 216 208 201 196 195 192 191 196 198 196 200 198 186 175 162 150 153 161 314 274 261 271 278 276 275 274 272 271 271 271 273 275 278 280 282 283 284 285 284 283 283 284 285 285 286 286 286 287 288 291 294 296 296 296 297 299 300 300 300 298 296 293 290 289 289 288 286 284 284 285 286 288
299 297 292 287 285 281 276 272 272 272 269 256 241 229 223 217 210 205 200 196 199 201 202 206 206 200 196 195 191 194 208 240 260 269 286 295 296 291 284 279 276 275 274 274 275 277 280 283 285 287 287 286 285 285 286 287 288 288 288 289 289 289 290 291 292 291 292 296 301 303 302 301 300 299 296 292 288 285 285 285 285 285 285 286 287
298 297 293 285 278 272 268 266 265 266 266 262 254 244 236 231 229 226 220 214 212 212 212 215 218 218 219 221 223 228 240 252 264 275 283 290 295 294 289 283 280 279 279 278 278 279 281 284 286 288 289 290 290 290 291 292 293 293 293 294 294 294 292 289 287 286 286 290 294 297 298 299 300 300 298 293 287 285 285 286 286 286 286 288 288
300 296 293 290 285 278 271 266 262 259 260 262 262 260 253 247 245 244 241 236 234 232 232 233 234 236 240 242 244 247 253 259 265 271 275 281 287 289 287 283 279 278 279 280 280 281 282 284 287 288 288 290 291 293 294 295 295 294 293 293 293 294 293 289 286 285 285 287 289 290 292 293 294 294 296 293 289 289 291 291 289 288 290 292 290
306 303 298 293 289 285 280 275 270 264 259 258 260 262 261 258 256 257 256 253 250 248 247 248 249 250 252 255 257 260 265 269 272 273 274 278 282 284 284 281 278 277 278 278 279 281 283 287 289 288 288 290 291 292 292 292 292 291 290 290 290 290 289 287 286 287 288 288 289 290 291 292 293 294 295 293 292 294 297 295 292 291 292 293 292
315 311 305 300 295 291 288 285 282 278 273 266 265 265 265 263 261 260 262 263 262 261 259 259 259 259 260 262 265 267 269 274 278 279 280 281 283 284 284 281 278 278 279 280 282 283 286 290 291 290 290 291 290 290 290 290 290 289 289 289 288 286 284 284 285 288 291 292 294 296 297 298 298 299 301 299 297 298 301 299 294 292 293 293 293
325 316 308 304 300 296 295 293 291 290 287 282 276 273 271 271 268 265 262 262 263 265 266 267 269 269 270 271 273 275 277 279 282 284 286 287 288 288 287 284 280 279 281 284 287 288 290 294 296 297 298 298 297 296 296 296 294 293 293 294 294 293 291 289 289 289 292 295 298 302 304 305 305 306 307 305 302 301 302 301 297 294 294 293 293
325 317 312 308 301 297 296 295 296 297 296 293 288 280 273 270 269 269 268 265 264 264 265 267 269 271 272 272 272 274 278 281 283 285 286 287 289 290 291 290 287 284 285 287 290 292 295 298 300 302 304 307 308 309 308 307 305 301 298 298 300 302 302 302 299 296 295 296 298 302 306 309 309 309 310 310 308 306 305 304 303 300 297 294 292
325 317 312 308 304 300 298 297 299 301 302 300 297 291 283 277 271 269 270 270 270 269 268 267 266 266 267 269 270 269 270 273 277 280 281 283 285 288 290 292 292 293 293 293 295 297 299 299 299 299 302 307 312 316 318 317 315 312 307 304 302 301 299 300 300 299 297 297 298 301 305 307 308 309 310 312 314 314 311 310 310 309 304 299 295
328 319 311 305 301 299 297 297 299 301 303 302 300 298 297 295 292 287 284 281 278 275 273 271 268 263 261 263 266 268 268 268 268 269 272 275 278 283 288 293 295 296 298 300 300 301 301 301 299 297 298 301 306 310 313 314 313 313 312 310 308 305 301 296 293 291 291 293 294 296 299 300 301 303 306 311 316 318 318 316 314 312 309 306 303
332 323 314 307 301 298 297 298 299 299 301 300 299 299 300 301 302 302 300 298 296 291 285 281 277 273 267 262 261 262 264 265 266 266 267 269 271 275 282 290 296 299 300 301 302 301 300 301 302 300 298 298 301 304 307 308 309 309 309 308 308 308 306 303 298 293 289 288 289 291 293 294 295 297 300 304 309 314 316 316 314 312 309 307 305
331 325 316 308 302 299 298 298 298 300 300 298 296 296 296 297 298 300 300 302 304 305 303 300 295 291 285 276 265 257 255 257 260 263 266 268 268 270 274 282 291 296 297 295 295 297 299 301 303 303 301 301 302 304 305 306 307 308 309 308 307 306 306 305 303 299 295 291 290 290 291 291 292 293 296 299 302 306 307 307 307 304 300 299 300
328 324 317 310 304 299 296 296 297 299 298 295 293 293 293 293 293 292 291 294 298 300 301 302 301 299 295 288 277 263 255 254 256 260 264 267 270 273 275 278 283 289 291 290 289 292 295 297 298 300 301 302 304 305 305 306 307 308 309 310 310 310 309 307 304 302 299 297 294 293 293 292 291 292 295 297 298 298 297 297 296 294 292 292 294
325 322 318 313 307 301 299 299 301 300 297 294 292 290 289 289 288 286 286 288 290 291 293 296 297 297 295 287 278 272 265 261 261 263 267 271 274 277 278 280 282 285 288 290 291 292 293 294 296 299 302 304 305 306 307 308 308 308 309 309 310 312 313 312 310 307 304 301 299 297 296 295 295 295 296 297 297 295 291 286 283 283 284 286 287
322 320 318 313 308 304 303 305 305 301 296 293 292 292 291 288 285 284 285 285 285 286 288 290 292 293 294 290 284 279 276 272 270 270 272 273 273 273 274 277 280 282 284 289 292 294 296 297 298 300 302 303 305 306 306 306 306 307 307 307 308 309 311 312 313 313 311 308 305 302 299 297 296 296 297 296 296 296 293 289 285 282 282 283 284
319 318 316 313 310 307 305 304 302 299 296 295 295 296 294 288 285 285 285 283 282 284 286 287 287 286 286 285 283 282 281 280 278 278 278 277 276 274 274 274 277 279 283 288 292 293 295 297 298 300 301 301 302 303 304 304 305 306 306 306 306 307 309 310 312 312 312 311 309 307 304 301 298 297 297 297 297 297 296 294 292 289 287 286 287
317 317 315 313 310 308 306 304 301 298 296 294 292 291 289 288 290 293 293 291 290 289 286 283 281 280 279 279 280 282 282 281 280 280 281 282 281 279 278 278 279 280 282 285 288 290 292 293 295 296 298 299 300 301 302 303 304 306 306 306 307 308 310 311 311 312 311 310 309 308 306 304 301 298 297 297 297 297 297 296 296 294 292 290 289
315 316 315 312 309 306 305 304 301 298 296 294 292 293 295 298 301 305 305 301 295 290 287 285 286 285 282 278 276 277 280 282 282 280 279 279 278 277 276 277 279 279 280 281 284 287 288 291 293 294 295 296 298 299 301 302 304 305 306 307 308 308 309 311 311 311 311 309 308 307 306 305 303 300 298 296 296 297 297 297 296 296 295 293 292
314 314 313 310 307 305 304 303 301 300 299 298 299 301 304 305 305 306 305 303 300 299 301 302 300 296 291 286 280 277 277 280 282 281 279 276 274 272 272 272 272 273 276 278 281 283 285 287 290 292 293 294 295 295 297 299 301 303 304 305 306 307 308 309 310 310 310 308 307 306 305 304 303 301 299 297 296 295 295 295 296 296 296 294 294
313 312 311 309 306 305 303 302 301 301 301 301 302 304 304 304 304 305 307 308 307 308 308 306 303 303 303 302 297 290 284 281 281 280 280 278 275 273 271 270 269 269 271 275 279 281 282 283 285 287 289 291 291 292 294 296 299 300 301 302 303 304 305 307 308 308 308 307 305 304 302 302 301 301 299 298 296 294 293 293 293 295 296 296 295
310 310 308 306 304 302 301 300 301 302 302 302 302 303 305 305 305 305 306 307 307 308 307 304 305 308 309 307 302 296 293 292 291 289 287 286 285 283 278 273 269 267 267 270 274 276 279 281 283 285 286 287 288 289 291 294 299 302 302 301 301 300 301 303 305 306 306 305 304 302 300 298 297 298 298 297 296 294 293 293 293 294 295 295 295
308 308 306 305 302 301 301 301 301 302 303 303 303 304 304 302 300 302 303 304 304 306 305 303 303 305 304 301 298 298 299 300 301 299 296 293 292 292 288 280 273 269 267 268 270 272 275 278 280 281 282 283 286 288 290 292 297 302 303 301 300 299 298 299 301 302 302 302 302 301 299 296 293 293 294 296 296 296 295 294 294 295 295 295 295
306 305 305 304 303 303 303 300 300 302 302 297 291 289 291 295 300 305 306 304 304 304 304 302 300 298 297 297 299 302 304 304 302 301 300 295 290 289 288 283 276 270 268 266 266 267 270 273 275 278 281 285 289 293 295 296 298 300 301 300 299 298 296 296 296 298 299 300 300 300 299 297 294 291 291 292 294 296 296 295 295 296 296 296 295
308 308 308 307 306 304 301 296 294 294 290 285 282 283 287 292 297 301 302 303 305 305 302 300 298 298 300 304 307 309 309 307 304 303 302 298 290 284 281 279 276 273 270 269 269 270 273 275 278 282 286 289 293 296 298 298 298 297 297 298 298 297 295 293 292 293 295 297 299 299 299 298 296 294 292 291 292 294 295 295 295 296 296 295 295
315 316 315 313 311 309 305 301 298 295 293 291 291 293 295 297 299 300 301 302 303 303 302 303 305 307 310 313 314 313 312 311 310 309 307 304 297 288 280 277 277 276 275 275 276 278 280 283 285 286 288 291 293 294 294 295 294 295 297 298 299 299 297 292 289 289 292 294 296 298 299 299 298 296 295 293 292 292 293 294 294 295 295 295 293
325 324 323 321 319 317 315 312 309 307 306 306 306 306 307 308 308 308 308 308 308 308 308 310 311 313 315 316 316 316 316 316 315 314 311 308 305 298 290 284 282 281 280 280 280 281 282 283 285 286 287 289 289 290 291 293 295 296 297 298 297 297 296 292 288 287 290 292 294 297 298 298 297 296 294 293 291 290 290 291 291 292 292 292 291
333 332 331 329 326 323 322 319 316 315 315 315 315 315 315 315 315 315 315 315 314 314 313 312 312 313 314 316 317 317 317 315 313 310 309 308 308 306 303 298 293 290 287 285 284 284 284 284 285 286 287 287 288 289 292 295 297 297 296 295 295 295 295 292 288 286 289 292 294 295 296 296 296 294 293 292 291 290 289 289 289 288 288 287 287
336 335 334 330 327 324 323 322 321 321 321 320 320 319 319 320 320 320 321 321 319 318 317 315 313 312 313 316 318 319 318 316 314 312 310 309 308 307 306 305 302 299 297 294 292 291 290 289 289 289 289 289 289 290 291 292 293 293 294 294 294 294 293 291 287 287 289 292 294 295 296 296 295 293 292 291 290 290 289 289 288 286 285 284 284